RH
30 61 100 100 100 100 100 100 100 100 100 100 98 100 97 99 100 100 100 100 92 77 62 66 100 100 90 76 58 48 48 58 55 67 94 88 78 100 100 100 100 100 99
38 100 100 100 100 100 100 100 100 100 100 100 100 100 91 79 100 100 100 99 92 81 68 63 72 79 94 92 99 90 57 61 74 70 78 100 100 92 92 100 100 100 100
76 100 100 100 100 100 100 100 100 100 100 100 99 100 100 90 72 100 100 100 93 88 91 73 68 90 84 82 68 59 55 54 58 77 78 85 100 100 94 100 100 100 100
72 96 100 100 100 100 100 100 100 100 98 92 100 100 92 100 100 96 90 100 100 99 100 100 100 100 94 90 72 57 39 36 36 41 83 78 85 100 100 100 98 100 100
100 100 100 100 100 100 100 100 100 96 86 83 76 89 91 87 97 100 100 100 85 91 99 99 85 93 100 99 89 73 51 37 34 33 31 54 73 83 100 100 99 93 100
61 82 90 99 100 100 100 100 85 86 92 83 69 64 81 96 89 87 84 89 94 92 92 97 84 73 69 62 67 68 80 64 47 36 33 31 49 74 86 99 98 88 96
100 100 100 100 97 93 86 99 98 82 75 44 45 75 70 70 74 81 80 81 75 76 80 86 93 99 93 67 60 54 52 63 64 58 48 37 31 36 66 88 100 92 89
100 83 64 92 93 97 96 88 89 84 74 45 41 68 89 85 82 77 72 78 81 78 68 67 70 75 77 75 65 53 49 51 56 65 64 50 48 40 30 41 85 96 100
90 100 98 71 50 67 61 54 47 47 49 41 34 37 42 40 43 47 42 30 38 60 60 55 59 66 70 66 65 65 57 50 56 61 66 81 59 53 51 43 30 54 80
100 100 100 100 89 68 41 47 36 32 31 29 26 25 30 33 41 47 54 48 38 46 47 46 46 49 54 65 84 90 80 71 66 54 62 78 94 86 68 52 52 40 34
100 100 94 67 90 92 100 97 83 66 47 58 72 53 33 38 34 35 36 35 38 33 34 36 37 34 34 36 44 48 54 97 100 91 61 54 57 79 92 81 69 60 51
100 96 84 83 93 98 99 95 93 94 94 92 95 90 92 86 81 71 56 51 44 40 35 41 43 45 47 46 46 44 40 46 60 97 100 100 90 63 51 64 80 82 71
82 67 78 78 69 65 65 73 74 77 71 68 65 72 67 59 54 42 44 47 49 61 61 56 56 50 49 47 47 50 53 45 43 50 52 84 100 100 90 49 59 81 77
45 46 35 30 28 26 23 18 17 17 20 18 17 18 20 21 22 22 22 23 24 22 22 20 22 22 22 20 23 29 32 35 42 43 42 44 47 57 79 99 95 63 70
20 19 18 17 16 17 18 17 15 15 14 15 16 16 17 19 22 25 27 26 28 30 29 28 30 29 28 27 26 26 23 20 20 24 30 31 37 35 34 44 54 82 97
13 12 12 12 12 12 12 11 12 12 12 12 13 12 13 14 16 17 21 29 31 31 34 36 35 33 31 30 30 30 27 24 22 22 24 22 22 27 33 36 36 43 47
14 13 11 11 12 13 16 18 16 15 15 15 15 16 16 17 16 16 16 17 19 20 20 23 26 26 29 27 31 31 39 38 32 26 24 22 20 22 22 18 26 34 41
14 12 12 12 14 20 30 25 18 18 18 18 19 23 25 26 26 25 24 22 22 24 26 30 32 34 32 29 30 32 34 33 35 34 34 31 28 26 23 22 21 18 21
15 15 14 16 19 30 42 41 30 25 23 22 23 23 22 20 20 20 19 20 21 25 26 28 32 34 34 44 45 48 51 45 38 31 31 31 31 29 28 26 23 21 18
13 14 17 31 36 40 45 52 48 42 31 26 25 25 25 25 24 23 27 26 27 30 33 37 45 50 72 67 70 66 67 79 69 52 45 35 30 29 30 29 27 26 22
18 21 29 31 34 42 54 58 52 48 34 35 33 26 21 19 19 17 18 20 22 25 37 32 32 37 38 43 47 52 65 57 59 59 55 42 31 28 26 27 26 26 24
34 36 31 31 34 41 46 54 58 52 44 40 42 38 30 29 18 16 17 22 24 30 31 27 32 32 31 32 32 32 37 43 41 43 45 54 48 36 23 20 21 20 22
34 33 32 32 33 36 44 46 37 43 50 47 38 38 44 38 22 16 18 20 27 34 36 36 38 36 32 41 29 34 32 28 27 34 38 33 37 36 32 29 22 18 16
42 40 37 36 42 51 48 45 42 35 33 32 39 36 40 42 28 18 19 25 30 38 44 53 70 67 53 48 45 42 38 30 23 21 24 22 20 18 24 28 31 28 24
46 44 43 44 50 52 53 56 59 48 40 38 36 36 41 63 31 22 23 26 32 37 44 59 71 91 78 51 53 59 28 22 16 14 17 27 22 21 19 16 18 23 27
46 51 52 52 61 61 61 68 71 64 48 44 43 50 48 39 25 21 26 31 38 43 48 57 83 75 76 95 74 56 36 22 17 14 11 18 16 20 20 20 15 16 17
Wind_Speed
32 39 40 36 30 26 29 31 35 31 33 33 30 30 26 19 18 23 26 26 25 24 25 26 22 23 26 26 23 24 27 23 19 19 21 23 20 25 30 32 33 33 31
38 42 46 38 29 29 29 36 41 38 34 30 25 27 28 24 22 22 25 25 25 26 26 26 27 28 25 23 25 26 25 27 23 23 23 27 29 29 33 37 37 37 35
41 50 43 41 36 36 35 41 45 45 38 34 27 17 22 25 25 24 25 26 23 23 25 26 27 25 27 26 23 22 22 24 26 27 26 27 29 31 33 38 39 37 36
40 50 46 39 38 38 39 38 39 34 34 33 30 30 28 27 28 29 27 26 25 26 25 22 24 24 28 29 29 26 24 24 25 27 28 28 31 34 35 33 37 41 33
42 46 46 45 45 41 38 37 31 29 26 26 24 25 31 34 31 31 32 32 33 32 33 31 29 26 25 28 29 28 27 26 26 26 27 31 32 33 35 38 36 38 43
37 41 43 43 46 44 46 35 33 29 27 28 29 29 30 29 31 35 33 35 36 37 38 37 37 36 35 34 32 31 30 30 29 30 29 29 34 35 37 37 39 39 43
29 36 42 41 42 44 40 47 37 34 35 34 32 31 32 32 34 33 34 36 35 36 38 38 40 39 39 40 40 39 37 36 37 36 34 34 34 36 39 39 40 42 44
31 35 36 44 45 44 41 43 45 43 42 38 31 33 38 37 36 37 39 39 40 41 41 40 40 42 44 44 45 45 45 43 41 41 42 41 41 39 38 41 44 44 45
32 30 36 39 43 42 38 43 41 38 35 38 38 39 40 39 42 45 45 47 47 46 45 46 46 46 46 47 48 47 47 47 46 45 44 46 48 48 45 43 43 47 48
34 34 31 36 35 38 39 38 39 41 43 45 48 50 46 46 50 50 50 49 50 51 51 53 54 55 53 52 52 52 52 52 52 51 50 48 50 51 52 52 50 50 50
35 38 39 39 37 38 38 40 42 44 45 52 56 55 55 56 57 57 59 59 57 57 57 60 62 60 59 60 61 60 61 59 58 58 58 59 56 54 54 55 56 55 54
41 40 40 43 46 48 50 51 52 50 51 53 54 56 55 57 60 61 65 65 65 67 67 67 67 67 68 69 68 67 67 67 66 66 64 63 65 65 63 61 60 59 59
29 31 33 33 32 34 36 37 39 37 41 44 44 45 47 49 52 55 57 59 59 61 61 62 64 65 65 66 66 69 69 73 73 73 74 73 72 69 68 68 68 64 65
24 26 27 27 29 29 30 30 31 33 35 36 36 38 40 41 42 44 45 46 47 49 52 53 54 57 58 60 64 67 70 74 75 76 76 76 78 81 80 76 72 73 72
18 19 20 22 24 26 28 29 31 33 36 39 40 41 43 45 46 48 50 52 53 55 58 59 60 62 64 65 66 68 69 71 73 76 78 81 83 86 86 87 85 82 79
13 16 20 22 24 25 27 28 30 32 34 39 42 44 47 49 51 53 55 57 61 63 64 65 68 70 72 74 75 77 79 79 78 78 77 79 81 84 87 89 91 90 90
17 16 17 19 21 23 24 26 30 33 35 38 41 43 45 48 50 52 56 61 63 65 68 72 74 76 79 80 80 83 82 83 84 84 84 87 87 86 87 90 91 93 94
20 18 20 20 19 22 30 31 32 35 38 42 44 45 46 47 50 54 57 58 61 64 66 64 63 67 73 79 81 86 84 87 94 96 94 95 95 95 95 94 93 93 94
22 22 21 22 25 29 31 33 36 37 42 44 45 48 52 54 57 56 59 60 62 65 68 68 70 70 69 67 68 69 73 84 90 94 95 101 105 105 104 102 102 100 99
25 25 26 28 30 32 36 37 38 41 45 44 45 48 49 51 54 56 54 60 61 66 66 70 65 59 63 64 65 69 72 75 81 94 102 108 108 110 113 113 112 110 106
28 29 31 34 37 38 39 41 40 43 44 48 51 52 53 59 62 64 60 64 63 67 70 78 80 82 80 81 74 77 82 84 88 88 102 114 116 118 115 117 118 118 118
33 36 38 39 40 42 44 46 46 47 51 53 56 60 60 65 68 70 71 71 68 70 76 81 80 79 86 94 96 93 90 96 100 101 102 104 118 123 124 123 122 120 120
40 41 41 42 42 45 47 51 52 56 58 60 65 67 70 74 74 78 74 76 80 79 82 84 85 83 90 92 95 100 100 101 109 115 110 119 121 128 132 132 129 127 126
43 45 47 48 48 51 53 56 57 59 63 67 71 74 77 78 84 84 84 86 86 96 100 101 108 108 105 100 112 112 113 115 112 116 125 123 125 130 134 137 136 136 131
48 52 53 54 54 56 58 61 63 66 69 72 76 80 83 88 87 91 92 93 95 103 103 111 114 116 121 119 122 126 121 122 120 121 117 120 127 132 133 133 140 140 140
57 58 60 61 61 62 64 66 69 71 75 79 80 84 85 88 90 93 97 99 102 108 113 114 121 122 130 136 137 132 130 124 127 119 117 118 122 128 133 135 132 135 138
Wind_Direction
185 184 170 171 186 199 217 213 229 242 252 259 258 258 252 241 248 250 244 246 252 256 253 254 258 259 259 254 250 242 238 235 247 238 235 224 219 219 226 231 229 232 234
181 181 179 181 192 203 222 229 235 237 244 249 252 250 247 241 239 252 253 250 254 256 257 254 257 262 263 260 257 258 247 241 246 246 234 229 231 233 228 226 230 234 241
188 188 190 190 196 206 213 225 229 237 243 242 237 234 239 239 239 246 259 260 260 260 265 261 261 260 259 261 261 258 257 255 252 247 239 230 232 232 235 229 225 226 237
189 194 200 195 201 206 216 222 230 234 242 246 250 251 241 236 236 241 244 247 253 251 256 262 266 268 259 258 259 258 255 254 254 250 242 237 234 234 236 237 236 229 220
196 201 208 211 219 222 219 222 229 236 244 245 253 255 254 246 240 242 242 246 250 254 257 261 260 258 262 257 257 260 260 259 259 258 252 242 237 236 238 240 238 238 240
204 205 213 225 228 232 232 225 230 239 245 257 264 270 263 257 251 250 250 246 248 252 254 259 261 258 256 256 256 256 257 258 258 258 256 253 246 240 240 238 238 240 243
204 218 216 224 230 233 237 234 235 243 266 274 271 266 267 263 263 263 261 257 255 255 255 257 259 259 260 261 260 259 258 257 259 255 253 255 253 249 244 243 242 241 243
210 222 223 225 230 237 242 238 247 258 263 273 273 267 263 262 260 266 270 269 267 268 266 265 265 265 265 265 264 262 261 258 257 260 258 253 253 255 253 249 245 243 245
217 210 229 232 235 239 246 251 261 264 267 269 270 273 270 271 273 274 276 280 276 272 270 270 270 268 267 266 264 263 264 263 258 254 257 262 258 255 254 256 253 249 247
210 222 219 228 238 246 254 258 263 268 270 271 273 277 274 268 275 276 275 278 273 272 274 275 274 270 268 266 265 265 265 263 261 259 253 253 257 261 261 256 255 254 251
226 232 241 243 240 241 238 251 261 269 269 273 273 275 277 278 280 278 279 279 276 273 272 274 273 272 271 271 267 265 263 259 259 261 261 258 256 254 256 259 259 255 252
238 251 260 261 255 252 255 259 260 266 266 269 268 268 269 272 272 275 275 276 275 277 277 276 275 274 274 274 270 271 269 263 258 256 255 256 259 259 258 257 255 255 253
255 257 266 267 267 267 269 270 270 270 270 273 274 274 274 276 275 277 275 276 276 276 277 278 277 276 275 274 273 272 272 270 267 263 258 254 253 255 256 256 255 253 252
252 256 259 263 265 266 266 266 266 267 269 270 272 274 278 280 281 279 280 281 280 279 278 277 278 278 278 278 276 273 270 267 265 266 264 262 259 259 258 253 252 253 252
257 262 265 267 267 268 269 271 274 277 278 278 279 279 277 277 278 280 281 280 280 279 279 278 278 278 277 275 273 272 271 269 268 267 264 261 260 260 258 259 259 254 252
268 270 275 281 283 282 287 288 291 292 293 291 288 286 287 287 286 286 287 286 285 285 285 283 282 282 281 281 280 279 277 274 272 268 267 266 263 259 256 255 254 257 258
279 280 287 286 283 284 295 300 298 294 293 293 292 289 288 286 284 285 285 283 282 283 282 280 281 281 281 279 278 278 276 275 273 271 270 269 266 264 263 260 254 252 252
280 275 293 294 290 294 309 306 297 294 295 291 287 287 285 282 281 281 281 281 281 279 280 282 280 280 279 279 280 277 277 276 274 272 269 267 266 265 263 261 259 257 252
283 283 296 295 295 300 310 308 299 299 296 289 288 289 290 288 286 285 288 282 277 275 275 273 275 275 276 276 275 276 279 273 271 268 268 268 266 264 263 262 260 258 256
277 282 288 296 296 297 301 309 306 304 294 295 295 293 289 289 289 291 286 283 288 282 275 273 272 268 273 274 274 269 274 280 278 269 267 264 262 263 263 261 261 260 257
282 284 287 291 293 295 301 304 304 302 294 295 296 292 295 293 293 291 291 291 289 280 272 280 280 274 281 276 279 275 282 277 275 274 268 262 261 260 259 260 260 259 259
283 286 292 293 294 295 298 300 299 298 297 300 299 300 302 299 296 294 292 297 296 297 291 276 286 282 278 274 274 274 280 281 270 273 266 267 260 259 258 257 257 258 258
291 292 293 295 296 297 300 301 298 298 297 295 297 298 300 303 301 295 299 300 306 305 305 300 295 294 284 292 282 280 276 275 271 273 270 262 260 258 259 258 256 256 255
293 293 296 299 299 298 300 302 301 301 299 298 298 301 299 304 305 304 305 310 309 309 308 309 313 311 308 299 303 294 288 280 275 268 266 264 263 263 259 258 258 258 256
294 299 301 301 301 302 301 300 301 302 302 302 302 303 304 304 305 308 313 312 310 310 310 312 312 312 313 306 303 301 288 283 279 274 267 264 263 260 257 256 255 255 255
296 298 301 302 302 301 303 301 301 302 303 303 303 303 303 305 306 310 314 315 314 312 310 310 314 315 312 310 306 300 294 286 280 278 272 263 260 258 256 255 256 254 251